STARLINK-35752, 66275

Orbit data source: Space-Track

STARLINK-35752, 66275 is a payload satellite owned by SpaceX/Seattle (US) in LEO that was launched on Fri, 31 Oct 2025 UTC via an FALCON 9 launch vehicle from the Air Force Western Test Range (AFWTR). Payload-class satellites include a variety of spacecraft equipped with specific instruments for various scientific and technological missions. These include communications satellites like Starlink; space stations such as the ISS; scientific satellites like the Hubble; Earth observation satellites from companies like Planet Labs, Umbra, and HawkEye 360; GPS; miniature CubeSats for education and research; and military/defense satellites.

Loading next visibility...
Identifier
66275, 2025-247L
Orbit
LEO
Country
Flag of USUS
Related business
Manufacturer
SpaceX/Seattle
Mission
Operational Commercial Communications
Bus & Motor
STARLINK V2MO, Unknown motor
Mass
575 kg wet, ~530 kg dry
Launch date (UTC)
2025-10-31 (8 months ago)
Launch vehicle
FALCON 9
Launch site
Air Force Western Test Range (AFWTR)
Object type
Payload
Rocket body
Debris
Shape & HBR
Box + 2 Pan, 17.7 m
Radar Cross Section
36.964 m², Large (>1 m²)

Expand to show TLE details & history
Last TLE update: 17 hours ago

TLE from 17 hours ago
0 STARLINK-35752
1 66275U 25247L   26171.15011468  .00020137  00000-0  60512-3 0  9999
2 66275  53.1600  75.3262 0001175  90.5790 269.5347 15.34420802 36725
Epoch: 2026-06-20T03:36Z
TLE epoch observation values (Epoch: 2026-06-20T03:36:09.908Z)
Latitude
-0.00003°
Longitude
112.91602°
Altitude
463.549 km
Speed
7.636 km/s
True Right ascension
05h 01m 18s
True Declination
0° 00' 00"
Sunlit
Object was in daylight at epoch
Visualization orbit readout
Latitude
Unknown
Longitude
Unknown
Altitude
Unknown
Speed
Unknown
Apparent Right ascension
Unknown
Apparent Declination
Unknown
Sunlit
N/A
Visualization observer readout
Local Sidereal Time
07:18:13
Azimuth
Unknown
Elevation
Unknown
Doppler factor
Unknown
Orbital elements
Apogee altitude
463.702 km
Perigee altitude
462.094 km
Semi-major axis
6,841.035 km
Eccentricity
0.00012
Inclination
53.16°
RAAN
75.3262°
Arg. of periapsis
90.579°
True anomaly
269.52124°
Mean anomaly
269.5347°
Eccentric anomaly
269.52797°
Mean motion
3.83584 °/min
Orbital period
93.85 mins
BSTAR
0.00060512
Loading maneuver chart data...
Computing Atmospheric mass density...
Loading historical data...
Loading historical data...
Loading historical data...
Loading historical data...
Loading historical data...
Loading historical data...
Loading historical data...

Documentation

Showing up to 5 results
|